SFR031 FAPE-FACT

Flight info

Callsign SFR031
Flight time 1h 7m
Altitude 32000
Route OKRAV UQ49 ESRUK UQ51 GETEN GETEN1A
Aircraft B738/M-SDE2E3FGHIRWXY/LB1

Departure

Time 2026-04-25 10:47
Airport Chief Dawid Stuurman International Airport (FAPE)

Arrival

Time 2026-04-25 11:55
Airport Cape Town International Airport (FACT)
Time Latitude Longitude Altitude Speed Heading
2026-04-25 10:22 -33.98457 25.61220 211 ft 0 kts 328°
2026-04-25 10:40 -33.98458 25.61221 211 ft 2 kts 328°
2026-04-25 10:40 -33.98472 25.61231 215 ft 2 kts 329°
2026-04-25 10:40 -33.98487 25.61241 214 ft 2 kts 332°
2026-04-25 10:40 -33.98502 25.61249 213 ft 2 kts
2026-04-25 10:41 -33.98513 25.61242 212 ft 1 kts 58°
2026-04-25 10:41 -33.98514 25.61240 212 ft 0 kts 58°
2026-04-25 10:43 -33.98501 25.61265 217 ft 9 kts 58°
2026-04-25 10:43 -33.98455 25.61355 216 ft 15 kts 62°
2026-04-25 10:43 -33.98408 25.61484 216 ft 19 kts 58°
2026-04-25 10:44 -33.98336 25.61624 211 ft 21 kts 58°
2026-04-25 10:44 -33.98260 25.61771 220 ft 20 kts 58°
2026-04-25 10:44 -33.98254 25.61894 213 ft 10 kts 139°
2026-04-25 10:44 -33.98272 25.61909 211 ft 0 kts 147°
2026-04-25 10:45 -33.98279 25.61914 217 ft 0 kts 147°
2026-04-25 10:45 -33.98280 25.61915 217 ft 0 kts 147°
2026-04-25 10:46 -33.98293 25.61925 217 ft 6 kts 147°
2026-04-25 10:46 -33.98374 25.61946 219 ft 18 kts 211°
2026-04-25 10:46 -33.98433 25.61843 211 ft 24 kts 238°
2026-04-25 10:46 -33.98659 25.61407 214 ft 97 kts 237°
2026-04-25 10:47 -33.99131 25.60493 215 ft 158 kts 239°
2026-04-25 10:47 -33.99747 25.59237 579 ft 181 kts 245°
2026-04-25 10:47 -34.00399 25.57914 1230 ft 184 kts 238°
2026-04-25 10:47 -34.01192 25.56722 2220 ft 182 kts 235°
2026-04-25 10:48 -34.02015 25.55455 2924 ft 202 kts 239°
2026-04-25 10:48 -34.02913 25.54023 3227 ft 227 kts 237°
2026-04-25 10:48 -34.03662 25.52351 3640 ft 238 kts 261°
2026-04-25 10:48 -34.03809 25.50358 4304 ft 243 kts 271°
2026-04-25 10:49 -34.03809 25.48243 4798 ft 259 kts 272°
2026-04-25 10:49 -34.03791 25.46036 5563 ft 266 kts 272°
2026-04-25 10:49 -34.03785 25.43810 6426 ft 270 kts 271°
2026-04-25 10:49 -34.03793 25.41524 7195 ft 274 kts 271°
2026-04-25 10:50 -34.03814 25.39220 8036 ft 277 kts 271°
2026-04-25 10:50 -34.03846 25.36885 8837 ft 281 kts 271°
2026-04-25 10:50 -34.03887 25.34519 9655 ft 284 kts 272°
2026-04-25 10:50 -34.03934 25.32120 10319 ft 292 kts 271°
2026-04-25 10:51 -34.03985 25.29563 10516 ft 317 kts 271°
2026-04-25 10:51 -34.04043 25.26804 10708 ft 340 kts 271°
2026-04-25 10:51 -34.04110 25.23911 11203 ft 350 kts 271°
2026-04-25 10:51 -34.04183 25.20957 11909 ft 353 kts 270°
2026-04-25 10:52 -34.04258 25.17993 12722 ft 354 kts 270°
2026-04-25 10:52 -34.04333 25.15009 13465 ft 357 kts 270°
2026-04-25 10:52 -34.04408 25.12009 14123 ft 360 kts 270°
2026-04-25 10:52 -34.04483 25.08966 14718 ft 365 kts 270°
2026-04-25 10:53 -34.04558 25.05893 15313 ft 369 kts 270°
2026-04-25 10:53 -34.04633 25.02792 15937 ft 373 kts 270°
2026-04-25 10:53 -34.04708 24.99653 16522 ft 376 kts 270°
2026-04-25 10:53 -34.04783 24.96476 17134 ft 380 kts 270°
2026-04-25 10:54 -34.04858 24.93273 17729 ft 384 kts 270°
2026-04-25 10:54 -34.04907 24.91137 18130 ft 386 kts 270°
2026-04-25 10:54 -34.05007 24.86775 18842 ft 390 kts 270°
2026-04-25 10:54 -34.05081 24.83495 19416 ft 392 kts 270°
2026-04-25 10:55 -34.05154 24.80204 19970 ft 395 kts 270°
2026-04-25 10:55 -34.05227 24.76881 20532 ft 397 kts 270°
2026-04-25 10:55 -34.05300 24.73553 21082 ft 399 kts 270°
2026-04-25 10:55 -34.05372 24.70180 21541 ft 404 kts 270°
2026-04-25 10:56 -34.05443 24.66794 22081 ft 405 kts 269°
2026-04-25 10:56 -34.05515 24.63380 22612 ft 408 kts 270°
2026-04-25 10:56 -34.05585 24.59961 23095 ft 411 kts 269°
2026-04-25 10:56 -34.05657 24.56505 23546 ft 414 kts 269°
2026-04-25 10:57 -34.05726 24.53021 23926 ft 417 kts 269°
2026-04-25 10:57 -34.05795 24.49515 24305 ft 419 kts 269°
2026-04-25 10:57 -34.05863 24.45996 24747 ft 420 kts 269°
2026-04-25 10:57 -34.05931 24.42458 25100 ft 423 kts 269°
2026-04-25 10:58 -34.05998 24.38899 25473 ft 426 kts 270°
2026-04-25 10:58 -34.06064 24.35378 25951 ft 425 kts 270°
2026-04-25 10:58 -34.06130 24.31804 26312 ft 428 kts 269°
2026-04-25 10:58 -34.06195 24.28195 26554 ft 433 kts 269°
2026-04-25 10:59 -34.06260 24.24555 26984 ft 433 kts 269°
2026-04-25 10:59 -34.06323 24.20943 27507 ft 431 kts 269°
2026-04-25 10:59 -34.06385 24.17340 28046 ft 429 kts 269°
2026-04-25 10:59 -34.06446 24.13741 28474 ft 429 kts 269°
2026-04-25 11:00 -34.06505 24.10138 28880 ft 430 kts 269°
2026-04-25 11:00 -34.06564 24.06528 29261 ft 431 kts 269°
2026-04-25 11:00 -34.06622 24.02913 29632 ft 433 kts 269°
2026-04-25 11:00 -34.06679 23.99283 30027 ft 433 kts 269°
2026-04-25 11:01 -34.06735 23.95649 30410 ft 432 kts 269°
2026-04-25 11:01 -34.06790 23.92031 30805 ft 430 kts 269°
2026-04-25 11:01 -34.06843 23.88430 31217 ft 429 kts 269°
2026-04-25 11:01 -34.06895 23.84844 31614 ft 427 kts 269°
2026-04-25 11:02 -34.06946 23.81263 31884 ft 428 kts 269°
2026-04-25 11:02 -34.07046 23.74026 31878 ft 431 kts 269°
2026-04-25 11:03 -34.07141 23.66851 31874 ft 425 kts 269°
2026-04-25 11:03 -34.07231 23.59711 31883 ft 426 kts 269°
2026-04-25 11:04 -34.07318 23.52547 31882 ft 428 kts 269°
2026-04-25 11:04 -34.07400 23.45368 31877 ft 428 kts 269°
2026-04-25 11:05 -34.07478 23.38186 31867 ft 428 kts 269°
2026-04-25 11:05 -34.07552 23.31003 31869 ft 428 kts 269°
2026-04-25 11:06 -34.07622 23.23825 31870 ft 428 kts 269°
2026-04-25 11:06 -34.07687 23.16651 31870 ft 428 kts 269°
2026-04-25 11:07 -34.07748 23.09532 31872 ft 427 kts 269°
2026-04-25 11:07 -34.07805 23.02372 31863 ft 427 kts 269°
2026-04-25 11:08 -34.07859 22.95221 31868 ft 426 kts 269°
2026-04-25 11:08 -34.07907 22.88082 31863 ft 425 kts 269°
2026-04-25 11:09 -34.07952 22.80962 31866 ft 424 kts 269°
2026-04-25 11:09 -34.07986 22.75000 31865 ft 424 kts 269°
2026-04-25 11:10 -34.08022 22.67901 31867 ft 423 kts 269°
2026-04-25 11:10 -34.08055 22.60800 31860 ft 423 kts 269°
2026-04-25 11:11 -34.08084 22.53761 31859 ft 423 kts 269°
2026-04-25 11:11 -34.08108 22.46672 31854 ft 422 kts 269°
2026-04-25 11:12 -34.08129 22.39584 31857 ft 422 kts 269°
2026-04-25 11:12 -34.08145 22.32498 31855 ft 422 kts 269°
2026-04-25 11:13 -34.08158 22.25420 31860 ft 422 kts 269°
2026-04-25 11:13 -34.08166 22.18334 31859 ft 422 kts 269°
2026-04-25 11:14 -34.08170 22.11248 31860 ft 422 kts 269°
2026-04-25 11:14 -34.08171 22.04162 31864 ft 422 kts 269°
2026-04-25 11:15 -34.08166 21.97087 31871 ft 422 kts 269°
2026-04-25 11:15 -34.08159 21.90003 31872 ft 422 kts 269°
2026-04-25 11:16 -34.08139 21.79388 31875 ft 421 kts 269°
2026-04-25 11:16 -34.08121 21.72365 31860 ft 421 kts 269°
2026-04-25 11:17 -34.08099 21.65300 31872 ft 421 kts 269°
2026-04-25 11:17 -34.08073 21.58248 31867 ft 420 kts 269°
2026-04-25 11:18 -34.08043 21.51198 31870 ft 420 kts 269°
2026-04-25 11:18 -34.08009 21.44164 31867 ft 419 kts 269°
2026-04-25 11:19 -34.07971 21.37133 31862 ft 419 kts 269°
2026-04-25 11:19 -34.07929 21.30119 31869 ft 418 kts 269°
2026-04-25 11:20 -34.07883 21.23108 31873 ft 418 kts 269°
2026-04-25 11:20 -34.07833 21.16106 31865 ft 417 kts 269°
2026-04-25 11:21 -34.07780 21.09123 31878 ft 416 kts 269°
2026-04-25 11:21 -34.07722 21.02139 31880 ft 416 kts 269°
2026-04-25 11:22 -34.07671 20.96447 31858 ft 399 kts 269°
2026-04-25 11:22 -34.07598 20.88707 31874 ft 394 kts 269°
2026-04-25 11:23 -34.07567 20.85394 31634 ft 396 kts 269°
2026-04-25 11:23 -34.07534 20.82093 31379 ft 390 kts 269°
2026-04-25 11:23 -34.07500 20.78831 30973 ft 387 kts 269°
2026-04-25 11:23 -34.07466 20.75595 30615 ft 385 kts 269°
2026-04-25 11:24 -34.07432 20.72380 30245 ft 382 kts 269°
2026-04-25 11:24 -34.07396 20.69181 29861 ft 380 kts 269°
2026-04-25 11:24 -34.07393 20.66049 29427 ft 377 kts 263°
2026-04-25 11:24 -34.07848 20.62963 29046 ft 371 kts 255°
2026-04-25 11:25 -34.08508 20.59963 28634 ft 369 kts 253°
2026-04-25 11:25 -34.09209 20.57007 28272 ft 365 kts 252°
2026-04-25 11:25 -34.09917 20.54080 27919 ft 361 kts 252°
2026-04-25 11:25 -34.10623 20.51187 27555 ft 359 kts 252°
2026-04-25 11:26 -34.11330 20.48317 27219 ft 355 kts 252°
2026-04-25 11:26 -34.12034 20.45468 26849 ft 353 kts 252°
2026-04-25 11:26 -34.12735 20.42643 26517 ft 350 kts 252°
2026-04-25 11:26 -34.13434 20.39833 26160 ft 348 kts 252°
2026-04-25 11:27 -34.14132 20.37041 25834 ft 345 kts 252°
2026-04-25 11:27 -34.14824 20.34278 25501 ft 343 kts 252°
2026-04-25 11:27 -34.15514 20.31527 25167 ft 341 kts 252°
2026-04-25 11:27 -34.15970 20.29712 24956 ft 340 kts 252°
2026-04-25 11:28 -34.16888 20.26072 24524 ft 337 kts 252°
2026-04-25 11:28 -34.17572 20.23371 24217 ft 335 kts 252°
2026-04-25 11:28 -34.18251 20.20694 23907 ft 333 kts 252°
2026-04-25 11:28 -34.18932 20.18024 23607 ft 331 kts 252°
2026-04-25 11:29 -34.19611 20.15374 23290 ft 329 kts 252°
2026-04-25 11:29 -34.20287 20.12747 22980 ft 326 kts 252°
2026-04-25 11:29 -34.20961 20.10142 22694 ft 324 kts 252°
2026-04-25 11:29 -34.21633 20.07557 22416 ft 322 kts 252°
2026-04-25 11:30 -34.22309 20.04979 22166 ft 323 kts 252°
2026-04-25 11:30 -34.23003 20.02344 21913 ft 335 kts 252°
2026-04-25 11:30 -34.23713 19.99662 21645 ft 340 kts 252°
2026-04-25 11:30 -34.24433 19.96955 21380 ft 335 kts 252°
2026-04-25 11:31 -34.25146 19.94295 21140 ft 330 kts 252°
2026-04-25 11:31 -34.25850 19.91682 20916 ft 324 kts 252°
2026-04-25 11:31 -34.26543 19.89126 20730 ft 318 kts 252°
2026-04-25 11:31 -34.27229 19.86614 20558 ft 311 kts 252°
2026-04-25 11:32 -34.27908 19.84147 20406 ft 307 kts 252°
2026-04-25 11:32 -34.28580 19.81718 20276 ft 303 kts 252°
2026-04-25 11:32 -34.29177 19.79272 20159 ft 307 kts 260°
2026-04-25 11:32 -34.29537 19.76651 20064 ft 325 kts 262°
2026-04-25 11:33 -34.29876 19.73919 19899 ft 329 kts 262°
2026-04-25 11:33 -34.30208 19.71216 19791 ft 320 kts 262°
2026-04-25 11:33 -34.30529 19.68592 19717 ft 310 kts 262°
2026-04-25 11:33 -34.30844 19.66030 19517 ft 308 kts 263°
2026-04-25 11:34 -34.31163 19.63445 19299 ft 316 kts 263°
2026-04-25 11:34 -34.31494 19.60780 19075 ft 323 kts 263°
2026-04-25 11:34 -34.31831 19.58076 18862 ft 326 kts 262°
2026-04-25 11:34 -34.32169 19.55385 18651 ft 323 kts 263°
2026-04-25 11:35 -34.32506 19.52714 18401 ft 319 kts 263°
2026-04-25 11:35 -34.32845 19.50059 18014 ft 320 kts 263°
2026-04-25 11:35 -34.33187 19.47410 17704 ft 316 kts 263°
2026-04-25 11:35 -34.33397 19.44811 17606 ft 306 kts 270°
2026-04-25 11:36 -34.33398 19.42238 17340 ft 305 kts 272°
2026-04-25 11:36 -34.33360 19.39658 17092 ft 309 kts 272°
2026-04-25 11:36 -34.33314 19.37050 16901 ft 309 kts 272°
2026-04-25 11:36 -34.33270 19.34519 16956 ft 294 kts 272°
2026-04-25 11:37 -34.33232 19.32132 16816 ft 275 kts 273°
2026-04-25 11:37 -34.33199 19.29903 16672 ft 256 kts 272°
2026-04-25 11:37 -34.33167 19.27785 16187 ft 252 kts 272°
2026-04-25 11:37 -34.33136 19.25689 15775 ft 248 kts 273°
2026-04-25 11:38 -34.33110 19.23611 15203 ft 251 kts 273°
2026-04-25 11:38 -34.33088 19.21491 14654 ft 252 kts 273°
2026-04-25 11:38 -34.33070 19.19374 14098 ft 251 kts 273°
2026-04-25 11:38 -34.33057 19.17262 13499 ft 252 kts 273°
2026-04-25 11:39 -34.33047 19.15146 12878 ft 251 kts 273°
2026-04-25 11:39 -34.33040 19.13031 12245 ft 251 kts 273°
2026-04-25 11:39 -34.33035 19.10921 11628 ft 251 kts 273°
2026-04-25 11:39 -34.33033 19.08816 11028 ft 250 kts 273°
2026-04-25 11:40 -34.33035 19.06718 10452 ft 248 kts 273°
2026-04-25 11:40 -34.33042 19.04688 10232 ft 235 kts 273°
2026-04-25 11:40 -34.33055 19.02765 9977 ft 222 kts 273°
2026-04-25 11:40 -34.33073 19.00934 9737 ft 213 kts 273°
2026-04-25 11:41 -34.33098 18.99183 9474 ft 204 kts 273°
2026-04-25 11:41 -34.33125 18.97502 9198 ft 196 kts 273°
2026-04-25 11:41 -34.33156 18.95870 8951 ft 193 kts 273°
2026-04-25 11:41 -34.33186 18.94238 8687 ft 194 kts 272°
2026-04-25 11:42 -34.33214 18.92641 8455 ft 185 kts 273°
2026-04-25 11:42 -34.33248 18.91111 8237 ft 182 kts 273°
2026-04-25 11:42 -34.33292 18.89580 7990 ft 181 kts 273°
2026-04-25 11:42 -34.33342 18.88084 7759 ft 176 kts 272°
2026-04-25 11:43 -34.33385 18.86595 7506 ft 177 kts 273°
2026-04-25 11:43 -34.33430 18.85117 7256 ft 175 kts 273°
2026-04-25 11:43 -34.33479 18.83661 6985 ft 171 kts 273°
2026-04-25 11:43 -34.33518 18.82260 6766 ft 165 kts 274°
2026-04-25 11:44 -34.33566 18.80823 6539 ft 175 kts 273°
2026-04-25 11:44 -34.33621 18.79345 6307 ft 176 kts 273°
2026-04-25 11:44 -34.33674 18.77861 6058 ft 176 kts 272°
2026-04-25 11:44 -34.33614 18.76408 5783 ft 171 kts 293°
2026-04-25 11:45 -34.32960 18.75254 5564 ft 164 kts 311°
2026-04-25 11:45 -34.32191 18.74244 5294 ft 163 kts 313°
2026-04-25 11:45 -34.31415 18.73237 5062 ft 165 kts 313°
2026-04-25 11:45 -34.30627 18.72219 4830 ft 166 kts 313°
2026-04-25 11:46 -34.29790 18.71253 4567 ft 168 kts 328°
2026-04-25 11:46 -34.28712 18.70724 4336 ft 164 kts 336°
2026-04-25 11:46 -34.27667 18.70256 4101 ft 155 kts 338°
2026-04-25 11:46 -34.26671 18.69865 3826 ft 147 kts 340°
2026-04-25 11:47 -34.25702 18.69516 3573 ft 145 kts 342°
2026-04-25 11:47 -34.24734 18.69186 3337 ft 144 kts 342°
2026-04-25 11:47 -34.23761 18.68864 3100 ft 145 kts 343°
2026-04-25 11:47 -34.22807 18.68554 3036 ft 144 kts 343°
2026-04-25 11:48 -34.21820 18.68236 2992 ft 145 kts 343°
2026-04-25 11:48 -34.20867 18.67932 2987 ft 143 kts 343°
2026-04-25 11:48 -34.19912 18.67627 2997 ft 142 kts 343°
2026-04-25 11:48 -34.18943 18.67317 2991 ft 146 kts 344°
2026-04-25 11:49 -34.17961 18.67004 2991 ft 146 kts 344°
2026-04-25 11:49 -34.16983 18.66693 2991 ft 145 kts 344°
2026-04-25 11:49 -34.15994 18.66378 2986 ft 145 kts 344°
2026-04-25 11:49 -34.15035 18.66073 3001 ft 142 kts 343°
2026-04-25 11:50 -34.14103 18.65777 2997 ft 136 kts 343°
2026-04-25 11:50 -34.13203 18.65490 2988 ft 134 kts 343°
2026-04-25 11:50 -34.12279 18.65195 2870 ft 139 kts 344°
2026-04-25 11:50 -34.11355 18.64901 2690 ft 135 kts 344°
2026-04-25 11:51 -34.10450 18.64613 2518 ft 134 kts 343°
2026-04-25 11:51 -34.09547 18.64325 2348 ft 134 kts 343°
2026-04-25 11:51 -34.08650 18.64007 2174 ft 134 kts 340°
2026-04-25 11:51 -34.07759 18.63675 2006 ft 134 kts 341°
2026-04-25 11:52 -34.06845 18.63395 1850 ft 137 kts 345°
2026-04-25 11:52 -34.05896 18.63108 1598 ft 146 kts 344°
2026-04-25 11:52 -34.04915 18.62806 1353 ft 140 kts 343°
2026-04-25 11:52 -34.04021 18.62533 1146 ft 126 kts 343°
2026-04-25 11:53 -34.03196 18.62276 977 ft 121 kts 342°
2026-04-25 11:53 -34.02379 18.61999 831 ft 121 kts 343°
2026-04-25 11:53 -34.01565 18.61734 677 ft 124 kts 346°
2026-04-25 11:53 -34.00724 18.61495 532 ft 124 kts 347°
2026-04-25 11:54 -33.99907 18.61240 392 ft 118 kts 346°
2026-04-25 11:54 -33.99124 18.60995 252 ft 117 kts 347°
2026-04-25 11:54 -33.97751 18.60566 154 ft 61 kts 346°
2026-04-25 11:55 -33.97274 18.60415 151 ft 62 kts 344°
2026-04-25 11:55 -33.97099 18.60202 155 ft 29 kts 288°
2026-04-25 11:55 -33.97069 18.60076 156 ft 9 kts 286°
2026-04-25 11:55 -33.97059 18.60026 156 ft 10 kts 278°
2026-04-25 11:56 -33.97082 18.59969 156 ft 8 kts 216°
2026-04-25 11:56 -33.97133 18.59944 156 ft 8 kts 229°
2026-04-25 11:56 -33.97148 18.59891 156 ft 2 kts 255°
2026-04-25 11:56 -33.97150 18.59882 156 ft 0 kts 253°